Погода в Нукунону

Токелау     11°04′00″S   171°05′02″W
темп.,
°C
ветер,
м/с
пор.,
м/с
влажн.,
%
обл.,
%
осадки,
мм/ч
давл.,
гПа
погр.,
м
11 мая, вт
вт1101:00+28всв677622 2.1 1009816
04:00+29всв677369 0.6 1008891
07:00+29св77767 1.1 1010929
10:00+29всв556994 0.4 1012955
13:00+29всв5669100 0.4 1009951
16:00+29в3465100 0.0 10081077
19:00+29в4468100 0.0 1010985
22:00+29вюв447380 0.2 1011812
12 мая, ср
ср1201:00+28вюв4476100 0.7 1010751
04:00+28вюв44765 0.7 1009670
07:00+28вюв44755 0.8 1011725
10:00+28в45745 0.0 1011789
13:00+29всв457237 0.0 1009935
16:00+29в337114 0.0 1008898
19:00+28в337235 0.0 1010680
22:00+28вюв3474100 0.3 1011667
13 мая, чт
чт1301:00+28вюв337229 0.6 1009769
04:00+28вюв337276 0.0 1009796
07:00+28вюв4473100 0.1 1010809
10:00+28в447419 0.3 1011725
13:00+28вюв337337 1.6 1009722
16:00+28вюв347343 0.1 1008798
19:00+28вюв447399 0.2 1009835
22:00+28в45743 0.1 1011763
14 мая, пт
пт1401:00+28в45754 0.8 1010719
04:00+28вюв45749 0.9 1009866
07:00+28в66752 1.0 1011864
10:00+28всв66757 0.3 1012874
13:00+28всв667511 0.4 1010891
16:00+28в66681 0.1 1009962
19:00+29в666274 0.1 1010964
22:00+29в66625 0.0 10121009
15 мая, сб
сб1501:00+29в67642 0.0 10111025
04:00+29в66655 0.0 10101012
07:00+28в67700 0.0 1012899
10:00+28вюв777514 0.0 1013989
13:00+29вюв67730 0.2 10111012
16:00+29вюв78750 0.4 1010907
19:00+29вюв99752 0.5 1011999
22:00+29вюв910720 0.4 10121164